Location: Lacuadrada
(41.9719°N, 0.0712°W)
Time: 09:47:36
(UTC+00:00)

Daily predictions for brighter satellites

Satellite Brightness Start Highest point End
(mag) Time Altitude Azimuth Time Altitude Azimuth Time Altitude Azimuth
SL-16 R/B 2.9 18:44:37 10° SSE 18:49:29 30° ESE 18:54:22 10° NE
Cosmos 332 Rocket 3.9 18:44:45 10° NNW 18:49:36 58° ENE 18:54:26 10° SSE
Cosmos 2333 Rocket 4.0 18:44:36 10° WSW 18:49:48 36° WNW 18:55:01 10° N
STARLINK-1230 3.6 18:46:01 10° SW 18:50:00 65° SE 18:54:01 10° ENE
Cosmos 1892 Rocket 3.9 18:48:04 10° N 18:52:23 45° ENE 18:56:41 10° SSE
USA 186 3.3 18:50:42 10° ESE 18:53:24 22° ENE 18:56:06 10° NNE
STARLINK-1234 3.8 18:50:32 10° WSW 18:53:26 45° NNW 18:56:20 10° NE
CSL-04 Rocket 3.8 18:48:25 10° SSE 18:53:45 83° WSW 18:59:04 10° NNW
ARGOS Delta rocket 4.4 18:49:36 10° SE 18:54:21 43° ENE 18:59:21 10° N
STARLINK-1243 3.5 18:50:41 10° SW 18:54:42 71° SE 18:58:43 10° ENE
Meteor 2-21 Rocket 4.4 18:49:52 10° N 18:55:57 78° E 19:02:00 10° SSE
NOSS 2-1 (E) 4.5 18:52:51 10° WSW 18:56:04 40° NW 18:59:31 10° NNE
Meteor 2-16 Rocket 4.5 18:50:28 10° N 18:56:36 66° E 19:02:42 10° SSE
Cosmos 1626 3.5 18:53:56 10° NNE 18:56:47 21° ENE 18:59:38 10° SE
STARLINK-1236 3.5 18:55:20 10° SW 18:59:21 78° SE 19:03:24 10° NE
Okean 1-7 Rocket 3.8 18:56:03 10° N 19:00:19 47° ENE 19:04:31 10° SSE
Cosmos 1242 Rocket 3.9 18:57:19 10° NNW 19:00:37 41° W 19:03:53 10° SSW
SJ-11-01 4.4 18:59:36 10° SSE 19:04:11 58° ENE 19:08:49 10° N
ATLAS CENTAUR Rocket 4.5 18:59:24 10° SW 19:05:07 39° SSE 19:27:08 13° ESE
H-2A R/B 2.4 19:00:10 10° SE 19:05:14 46° ENE 19:10:12 10° N
STARLINK-1269 3.5 19:04:43 10° SW 19:08:45 89° NW 19:12:49 10° NE
STARLINK-1118 1.8 19:07:45 10° NW 19:09:57 81° NE 19:11:31 17° SE
Cosmos 1544 Rocket 3.9 19:06:54 10° SSE 19:11:02 43° E 19:15:14 10° NNE
STARLINK-1094 4.4 19:08:58 10° NW 19:12:44 37° NNE 19:15:46 14° E
HJ-1C 3.5 19:09:57 10° S 19:13:17 80° WSW 19:16:39 10° NNW
STARLINK-1200 3.6 19:09:25 10° SW 19:13:27 82° NW 19:17:30 10° NE
Cosmos 1745 Rocket 4.0 19:08:13 10° N 19:14:34 84° E 19:20:49 10° S
Cosmos 2297 4.1 19:10:33 10° NNW 19:15:58 44° ENE 19:20:56 12° SE
STARLINK-1117 4.3 19:13:28 10° NW 19:17:16 40° NNE 19:20:06 16° E
USA 234 3.3 19:10:51 10° NE 19:17:19 61° SE 19:23:45 10° SSW
STARLINK-1192 3.7 19:14:03 10° WSW 19:18:06 76° NW 19:22:09 10° NE
Cosmos 2237 Rocket 3.0 19:14:04 10° SW 19:19:34 56° WNW 19:25:08 10° NNE
Cosmos 1805 3.8 19:15:47 10° SSW 19:19:39 62° W 19:23:32 10° N
Meteor 2-5 Rocket 3.8 19:14:13 10° NNW 19:19:54 83° W 19:25:27 10° S
STARLINK-1078 4.2 19:17:57 10° NW 19:21:47 42° NNE 19:24:26 18° E
ADEOS Rocket 4.1 19:15:49 10° N 19:22:21 51° WNW 19:28:14 10° SW
STARLINK-1244 3.8 19:18:52 10° WSW 19:22:53 70° NW 19:26:57 10° NE
STARLINK-1201 4.4 19:20:21 10° W 19:23:24 37° NNW 19:26:29 10° NE
Cosmos 1302 Rocket 4.5 19:20:53 10° N 19:25:53 41° ENE 19:29:43 16° SE
STARLINK-1108 4.1 19:22:27 10° NW 19:26:20 45° NNE 19:28:47 20° E
Cosmos 1269 Rocket 3.9 19:21:38 10° SSW 19:26:54 76° ESE 19:32:13 10° NNE
STARLINK-1138 3.9 19:23:34 10° WSW 19:27:36 65° NNW 19:31:38 10° NE
Cosmos 2278 Rocket 3.3 19:22:48 10° NW 19:28:11 45° WSW 19:33:32 10° S
CZ-2C R/B 3.5 19:25:13 10° NE 19:29:24 24° E 19:32:38 14° SE
STARLINK-1066 3.0 19:27:40 10° NW 19:30:48 64° NE 19:32:18 27° ESE
STARLINK-1071 4.0 19:26:58 10° NW 19:30:52 48° NNE 19:33:08 22° E
STARLINK-1081 2.9 19:28:09 10° NW 19:31:14 64° NE 19:32:41 28° ESE
STARLINK-1070 2.9 19:28:35 10° NW 19:31:41 65° NE 19:33:06 28° ESE
STARLINK-1124 4.0 19:27:51 10° NW 19:31:54 50° NNE 19:34:14 23° E
STARLINK-1069 2.9 19:28:59 10° NW 19:32:08 66° NE 19:33:34 28° ESE
STARLINK-1143 4.1 19:28:23 10° WSW 19:32:23 60° NW 19:36:25 10° NE
STARLINK-1085 2.9 19:29:26 10° NW 19:32:34 66° NE 19:34:00 29° ESE
STARLINK-1086 2.9 19:29:56 10° NW 19:33:03 67° NE 19:34:25 29° ESE
CZ-4 R/B 4.4 19:30:47 10° SW 19:33:09 16° W 19:35:31 10° NW
ARGOS 3.1 19:27:56 10° SSE 19:33:17 69° ENE 19:38:39 10° N
STARLINK-1095 2.9 19:30:23 10° NW 19:33:29 67° NE 19:34:50 30° ESE
STARLINK-1077 2.9 19:30:49 10° NW 19:33:56 68° NE 19:35:16 30° ESE
STARLINK-1075 2.9 19:31:16 10° NW 19:34:24 69° NE 19:35:42 31° ESE
STARLINK-1093 2.9 19:31:41 10° NW 19:34:50 70° NE 19:36:10 31° ESE
Meteor 1-24 Rocket 3.7 19:29:42 10° NNW 19:35:15 83° W 19:40:35 10° S
STARLINK-1074 2.9 19:32:08 10° NW 19:35:17 70° NE 19:36:36 31° ESE
STARLINK-1110 3.9 19:31:28 10° NW 19:35:24 52° NNE 19:37:29 25° E
STARLINK-1087 2.8 19:32:37 10° NW 19:35:44 71° NE 19:37:00 32° ESE
STARLINK-1088 2.8 19:33:05 10° NW 19:36:11 72° NE 19:37:26 32° ESE
STARLINK-1115 2.8 19:33:29 10° NW 19:36:39 73° NE 19:37:55 32° ESE
STARLINK-1076 2.8 19:33:56 10° NW 19:37:05 73° NE 19:38:20 33° ESE
STARLINK-1092 2.8 19:34:24 10° NW 19:37:34 74° NE 19:38:47 33° ESE
MOS 1 4.2 19:31:57 10° SSE 19:37:35 80° ENE 19:43:15 10° NNW
STARLINK-1080 2.8 19:34:53 10° NW 19:38:00 75° NE 19:39:10 34° ESE
STARLINK-1090 2.8 19:35:19 10° NW 19:38:26 75° NE 19:39:36 35° ESE
STARLINK-1089 2.8 19:35:46 10° NW 19:38:54 76° NE 19:40:02 35° ESE
SL-24 R/B 4.4 19:34:59 10° NNE 19:39:17 41° E 19:43:04 10° SSE
STARLINK-1107 2.8 19:36:13 10° NW 19:39:21 77° NE 19:40:28 36° ESE
Cosmos 1470 2.8 19:36:08 10° S 19:39:53 54° E 19:43:42 10° NNE
STARLINK-1241 4.4 19:38:56 10° WSW 19:42:51 50° NNW 19:46:46 10° NE
Cosmos 2315 Rocket 3.9 19:37:42 10° S 19:43:58 74° E 19:50:19 10° NNE
SL-08 RB Rocket 3.7 19:40:53 15° SSE 19:44:28 62° ENE 19:48:59 10° N
STARLINK-1122 3.7 19:40:36 10° NW 19:44:36 60° NE 19:46:17 31° ESE
SJ-6B 2.8 19:42:00 13° SSE 19:45:35 78° ENE 19:49:43 10° N
MetOp-A 4.4 19:42:29 19° SE 19:46:07 50° ENE 19:51:17 10° N
Resurs 1-3 4.1 19:44:44 27° ESE 19:46:27 39° ENE 19:50:32 10° N
ISS -1.5 19:44:17 10° NW 19:46:41 18° N 19:48:11 14° NE
STARLINK-1239 4.5 19:43:34 10° WSW 19:47:27 47° NNW 19:51:21 10° NE
Cosmos 1758 3.3 19:43:45 10° S 19:47:47 62° E 19:51:51 10° NNE
STARLINK-1126 3.6 19:45:13 10° NW 19:49:14 65° NE 19:50:44 35° ESE
CZ-2C R/B 3.1 19:46:52 10° S 19:51:59 76° WSW 19:56:54 10° NNW
Cosmos 304 Rocket 4.4 19:48:38 10° NNW 19:53:19 56° WSW 19:57:58 10° S
STARLINK-1082 3.5 19:49:46 10° NW 19:53:48 71° NE 19:55:08 40° ESE
Resurs 01 Rocket 2.3 19:53:05 31° E 19:53:51 33° ENE 19:57:48 10° N
FREGAT/IRIS 3.7 19:52:27 14° SSW 19:54:33 39° W 19:57:09 10° NNW
Abrixas rocket 2.4 19:51:49 10° SW 19:54:14 43° S 19:54:14 43° S
Cosmos 2369 Rocket 3.2 19:51:14 10° N 19:56:14 30° NE 19:57:50 26° E
STARLINK-1100 3.5 19:54:20 10° NW 19:58:22 76° NE 19:59:31 45° ESE
Meteor 2-15 Rocket 4.3 19:54:00 10° S 20:00:01 70° E 20:06:04 10° NNE
STARLINK-1083 3.4 19:58:56 10° NW 20:03:00 82° NE 20:03:57 51° ESE
IRIDIUM 114 4.4 19:58:00 10° N 20:03:09 56° E 20:05:35 30° SSE
SPOT 3 Rocket 3.5 20:00:43 21° SSE 20:04:16 79° ENE 20:09:31 10° NNW
Cosmos 1726 4.0 20:06:30 18° NE 20:06:30 18° NE 20:07:46 10° NNE
SL-14 R/B 4.2 20:03:15 10° NNW 20:07:10 48° W 20:11:02 10° SSW
STARLINK-1125 3.4 20:03:33 10° NW 20:07:36 88° NNE 20:08:23 57° SE
Meteor 1-21 Rocket 4.2 20:03:58 10° N 20:09:28 58° ENE 20:11:31 36° SE
STARLINK-1109 3.4 20:07:51 10° NW 20:11:55 86° SW 20:12:32 63° SE
Cosmos 1709 Rocket 4.4 20:06:01 10° NNW 20:12:08 64° W 20:18:10 10° S
IRIDIUM 103 4.2 20:07:08 10° N 20:12:21 69° E 20:14:45 32° SSE
MOS 1 Rocket 3.5 20:09:21 10° NNE 20:14:34 66° E 20:19:07 15° S
STARLINK-1091 3.4 20:12:32 10° NW 20:16:36 79° SW 20:17:02 68° SSE
Cosmos 1943 4.5 20:19:28 23° ENE 20:19:28 23° ENE 20:21:58 10° NE
Cosmos 292 Rocket 4.0 20:14:11 10° N 20:18:50 48° ENE 20:19:07 48° ENE
Cosmos 1943 Rocket 2.2 20:16:13 10° NNW 20:21:43 60° ENE 20:22:51 49° ESE
USA 186 4.4 20:21:39 10° SW 20:24:19 21° W 20:26:58 10° NW
Cosmos 2074 Rocket 4.0 20:18:27 10° N 20:24:42 64° E 20:26:45 42° SE
STARLINK-1072 3.8 20:25:35 10° WNW 20:29:27 60° SW 20:29:27 60° SW
Cosmos 1953 2.3 20:29:29 75° SW 20:29:42 79° W 20:33:41 10° N
Meteor 2-10 3.9 20:28:33 43° SSE 20:30:17 72° E 20:35:46 10° NNE
IRIDIUM 106 4.3 20:25:24 10° N 20:30:38 81° W 20:32:57 34° S
NOSS 3-3 (A) 3.8 20:25:20 10° SSW 20:30:58 61° ESE 20:37:16 10° NE
NOSS 3-3 (C) 3.8 20:25:27 10° SSW 20:31:04 60° ESE 20:37:22 10° NE
Cosmos 1626 4.4 20:29:00 10° NW 20:31:58 23° W 20:34:56 10° SW
Spot 2 Rocket 3.9 20:33:06 45° ENE 20:33:06 45° ENE 20:37:42 10° N
TSX-5 4.3 20:28:09 10° NNW 20:33:15 64° WSW 20:33:49 57° SSW
SL-16 R/B 3.5 20:28:09 10° SW 20:33:26 39° WNW 20:38:45 10° N
STARLINK-1103 4.5 20:29:55 10° NW 20:33:37 39° NNE 20:33:37 39° NNE
STARLINK-1096 4.0 20:30:04 10° WNW 20:33:44 54° WSW 20:33:44 54° WSW
Cosmos 2084 Rocket 4.0 20:31:19 10° NNW 20:35:19 51° NNE 20:35:19 51° NNE
STARLINK-1079 4.2 20:34:34 10° WNW 20:38:03 48° WSW 20:38:03 48° WSW
Aureole 3 4.3 20:38:26 26° SW 20:40:21 50° WNW 20:45:04 10° N
STARLINK-1116 4.5 20:39:05 10° WNW 20:42:22 42° WSW 20:42:22 42° WSW
Aureole 2 Rocket 4.2 20:40:59 10° NNW 20:42:44 27° N 20:42:44 27° N
H-2A R/B 4.3 20:40:40 10° SW 20:44:48 23° W 20:48:55 10° NW
Terra 4.0 20:49:36 14° NNE 20:49:36 14° NNE 20:50:50 10° NNE
Cosmos 1603 3.5 20:53:25 52° SSW 20:54:54 90° WNW 21:00:34 10° NNE
Meteor 1-16 Rocket 4.0 20:54:16 67° SSW 20:54:57 81° W 21:00:25 10° N
ATLAS 2AS CENTAUR R/B 3.6 20:49:30 10° NNW 20:56:28 36° NE 20:57:41 34° ENE
Cosmos 1825 Rocket 4.3 20:54:27 10° N 20:57:49 51° NNW 20:57:49 51° NNW
USA 234 4.1 20:54:01 10° NE 21:00:11 47° NNW 21:06:22 10° W
MetOp-B 4.1 21:01:14 84° NW 21:01:14 84° NW 21:06:28 10° NNW
Cosmos 2327 Rocket 4.4 20:56:34 10° N 21:02:52 87° E 21:03:23 77° SSE
CZ-2C R/B 3.7 21:05:01 10° N 21:09:50 41° WNW 21:14:10 12° SW
Cosmos 1992 Rocket 4.4 21:05:56 10° NNW 21:10:43 59° W 21:10:43 59° W
COSMOS 2455 4.5 21:06:55 10° N 21:11:09 21° NE 21:11:09 21° NE
Meteor 1-11 4.5 21:07:13 10° N 21:12:05 62° NNE 21:12:05 62° NNE
Meteor 2-17 Rocket 4.5 21:15:08 10° N 21:21:00 77° WNW 21:21:00 77° WNW
Cosmos 1656 Rocket 4.3 21:18:21 10° NNW 21:22:37 50° N 21:22:37 50° N
ISS -0.4 21:20:46 10° NW 21:21:09 13° NW 21:21:09 13° NW
ERS-1 Rocket 4.3 21:28:47 34° N 21:28:47 34° N 21:31:39 10° N
Resurs 01 Rocket 3.7 21:30:38 23° W 21:30:38 23° W 21:33:53 10° NW
Cosmos 2154 Rocket 4.4 21:30:07 10° NNW 21:36:21 59° W 21:36:21 59° W
Cosmos 2369 Rocket 3.2 21:35:03 10° NW 21:39:39 40° W 21:39:39 40° W
Cosmos 1943 Rocket 4.3 22:01:09 10° WNW 22:04:25 19° W 22:04:25 19° W
NOSS 3-4 (A) 4.3 22:08:05 10° NW 22:13:24 56° NNW 22:13:24 56° NNW
NOSS 3-4 (C) 4.3 22:08:10 10° NW 22:13:29 56° NNW 22:13:29 56° NNW
Terra 4.4 22:28:29 17° NNW 22:28:29 17° NNW 22:29:36 10° NNW
ATLAS 2AS CENTAUR R/B 3.9 22:40:32 10° NW 22:45:07 38° WNW 22:45:07 38° WNW
